Weather History for Oakland, CA

Change the Weather History Date:

Friday, November 2, 2012

  Actual Average Record
Temperature  
Mean Temperature 57 °F 58 °F  
Max Temperature 67 °F 67 °F 79 °F (1997)
Min Temperature 47 °F 48 °F 39 °F (1973)
Degree Days  
Heating Degree Days 8 8  
Month to date heating degree days 14 15  
Since 1 July heating degree days 423 367  
Cooling Degree Days 0 0  
Month to date cooling degree days 0 0  
Year to date cooling degree days 59 137  
Growing Degree Days 7 (Base 50)    
Moisture  
Dew Point 48 °F    
Average Humidity 73    
Maximum Humidity 93    
Minimum Humidity 52    
Precipitation  
Precipitation 0.00 in 0.09 in 0.58 in (1968)
Month to date precipitation 0.26 0.17  
Year to date precipitation 13.03 14.87  
Since 1 July precipitation 1.09 1.65  
Sea Level Pressure  
Sea Level Pressure 30.08 in    
Wind  
Wind Speed 4 mph (NW)    
Max Wind Speed 12 mph    
Max Gust Speed 14 mph    
Visibility 10 miles    
Events      
T = Trace of Precipitation, MM = Missing Value Source: NWS Daily Summary

Daily Weather History Graph

Daily Weather History Graph

Search for Another Location

Airport:

Trip Planner

Search our weather history database for the weather conditions in past years. The results will help you decide how hot, cold, wet, or windy it might be!

Date:

Astronomy

Nov. 02, 2012 Rise Set
Actual Time 7:35 AM PDT 6:08 PM PDT
Civil Twilight 7:08 AM PDT 6:35 PM PDT
Nautical Twilight 6:37 AM PDT 7:06 PM PDT
Astronomical Twilight 6:06 AM PDT 7:37 PM PDT
Moon 9:02 PM PDT (11/2) 10:58 AM PDT (11/2)
Length of Visible Light 11h 27m
Length of Day
10h 32m
Waning Gibbous, 86% of the Moon is Illuminated
Nov 2
Waning Gibbous
Nov 6
Last Quarter
Nov 13
New
Nov 20
First Quarter
Nov 28
Full

Hourly Weather History & Observations

Time (PDT) Temp. Dew Point Humidity Pressure Visibility Wind Dir Wind Speed Gust Speed Precip Events Conditions
12:53 AM 53.1 °F 48.0 °F 83% 30.07 in 10.0 mi North 3.5 mph - N/A   Clear
1:53 AM 51.1 °F 46.9 °F 86% 30.08 in 10.0 mi Calm Calm - N/A   Clear
2:53 AM 51.1 °F 48.0 °F 89% 30.08 in 10.0 mi NE 3.5 mph - N/A   Clear
3:53 AM 48.9 °F 46.0 °F 90% 30.07 in 10.0 mi Calm Calm - N/A   Clear
4:53 AM 48.9 °F 45.0 °F 86% 30.07 in 10.0 mi Calm Calm - N/A   Clear
5:53 AM 48.0 °F 45.0 °F 89% 30.08 in 10.0 mi NE 3.5 mph - N/A   Clear
6:53 AM 48.0 °F 44.1 °F 86% 30.07 in 10.0 mi ENE 3.5 mph - N/A   Scattered Clouds
7:53 AM 48.9 °F 45.0 °F 86% 30.09 in 10.0 mi NE 3.5 mph - N/A   Scattered Clouds
8:53 AM 54.0 °F 48.9 °F 83% 30.10 in 10.0 mi Calm Calm - N/A   Scattered Clouds
9:53 AM 57.9 °F 48.9 °F 72% 30.11 in 10.0 mi Calm Calm - N/A   Scattered Clouds
10:53 AM 60.1 °F 48.9 °F 67% 30.10 in 10.0 mi Calm Calm - N/A   Scattered Clouds
11:53 AM 61.0 °F 50.0 °F 67% 30.10 in 10.0 mi West 6.9 mph - N/A   Mostly Cloudy
12:53 PM 64.0 °F 48.0 °F 56% 30.08 in 10.0 mi West 8.1 mph - N/A   Mostly Cloudy
1:53 PM 66.9 °F 48.9 °F 52% 30.06 in 10.0 mi NW 9.2 mph - N/A   Mostly Cloudy
2:53 PM 66.0 °F 52.0 °F 60% 30.06 in 10.0 mi WNW 12.7 mph - N/A   Mostly Cloudy
3:53 PM 66.0 °F 50.0 °F 56% 30.05 in 10.0 mi WNW 6.9 mph - N/A   Mostly Cloudy
4:53 PM 64.9 °F 50.0 °F 58% 30.05 in 10.0 mi West 6.9 mph - N/A   Overcast
5:53 PM 63.0 °F 48.9 °F 60% 30.04 in 10.0 mi West 6.9 mph - N/A   Overcast
6:53 PM 61.0 °F 51.1 °F 70% 30.06 in 10.0 mi WNW 9.2 mph - N/A   Mostly Cloudy
7:53 PM 59.0 °F 50.0 °F 72% 30.06 in 10.0 mi WNW 5.8 mph - N/A   Mostly Cloudy
8:53 PM 57.9 °F 50.0 °F 75% 30.07 in 10.0 mi WNW 5.8 mph - N/A   Mostly Cloudy
9:53 PM 55.0 °F 50.0 °F 83% 30.08 in 10.0 mi Calm Calm - N/A   Mostly Cloudy
10:53 PM 53.1 °F 48.9 °F 86% 30.08 in 10.0 mi Calm Calm - N/A   Scattered Clouds
11:53 PM 51.1 °F 46.9 °F 86% 30.09 in 10.0 mi Calm Calm - N/A   Scattered Clouds